Home   Weather   Bernburg (Saale)   Past weeks

Flag for Germany Past Weather in Bernburg (Saale), Saxony-Anhalt, Germany — Yesterday and Last 2 Weeks

Now
32 °F

Passing clouds.


Feels Like: 26 °F
Forecast: 24 / 36 °F
Wind: 7 mph from Southwest

Location: Leipzig-Schkeuditz

Current Time: Dec 6, 2016 at 7:04:09 pm

Latest Report: Dec 6, 2016 at 6:20 pm


Visibility: N/A

Pressure: 30.51 "Hg

Humidity: 87%

Dew Point: 28 °F

Location of Bernburg (Saale)Location

Past Weather in Bernburg (Saale) — Graph

°F

Bernburg (Saale) Temperature Yesterday

Maximum temperature yesterday: 36 °F (at 1:20 pm)
Minimum temperature yesterday: 19 °F (at 2:50 am)
Average temperature yesterday: 26 °F

High & Low Weather Summary for the Past Weeks

 TemperatureHumidityPressure
High55 °F (Nov 22, 1:20 pm)100% (Nov 23, 1:20 am)30.57 "Hg (Nov 23, 1:20 am)
Low19 °F (Dec 5, 2:50 am)60% (Nov 30, 11:50 am)29.68 "Hg (Nov 21, 5:20 pm)
Average35 °F88%30.21 "Hg
* Reported Nov 21 5:20 pm — Dec 6 5:50 pm, Bernburg (Saale), Weather by CustomWeather, © 2016

Note: Actual official high and low records may vary slightly from our data, if they occured in-between our weather recording intervals... More about our weather records

Advertising

Bernburg (Saale) Weather History for the Previous 24 Hours

Scroll right to see more
 ConditionsComfort  
Time TempWeatherWind HumidityBarometerVisibility
5:50 pm
Tue, Dec 6
32 °FPartly cloudy.7 mph87%30.51 "HgN/A
5:20 pm32 °FPassing clouds.7 mph80%30.51 "HgN/A
4:50 pm32 °FPassing clouds.7 mph87%30.48 "HgN/A
4:20 pm32 °FPassing clouds.8 mph87%30.48 "HgN/A
3:50 pm32 °FPartly sunny.8 mph87%30.48 "HgN/A
3:20 pm34 °FPartly sunny.8 mph81%30.48 "HgN/A
2:50 pm34 °FPartly sunny.7 mph81%30.45 "HgN/A
2:20 pm34 °FPartly sunny.8 mph81%30.45 "HgN/A
1:50 pm34 °FPartly sunny.8 mph81%30.45 "HgN/A
1:20 pm32 °FPartly sunny.8 mph87%30.45 "HgN/A
12:50 pm32 °FPartly sunny.9 mph80%30.45 "HgN/A
12:20 pm32 °FPartly sunny.10 mph80%30.45 "HgN/A
11:50 am30 °FPartly sunny.9 mph86%30.45 "HgN/A
11:20 am30 °FScattered clouds.12 mph86%30.45 "HgN/A
10:50 am28 °FPassing clouds.10 mph86%30.45 "HgN/A
10:20 am27 °FPassing clouds.10 mph93%30.45 "HgN/A
9:50 am27 °FScattered clouds.9 mph86%30.45 "HgN/A
9:20 am25 °FScattered clouds.9 mph93%30.42 "HgN/A
8:50 am25 °FPassing clouds.9 mph86%30.42 "HgN/A
8:20 am25 °FPartly sunny.7 mph86%30.42 "HgN/A
7:50 am25 °FPassing clouds.7 mph93%30.42 "HgN/A
7:20 am23 °FPassing clouds.8 mph93%30.42 "HgN/A
6:50 am23 °FPassing clouds.9 mph93%30.39 "HgN/A
6:20 am23 °FPassing clouds.9 mph93%30.39 "HgN/A
5:50 am25 °FPassing clouds.7 mph93%30.39 "HgN/A
5:20 am23 °FCold.6 mph93%30.39 "HgN/A
4:50 am21 °FPassing clouds.7 mph93%30.36 "HgN/A
4:20 am21 °FClear.6 mph93%30.36 "Hg10 mi
3:50 am21 °FPassing clouds.7 mph93%30.36 "HgN/A
3:20 am21 °FPassing clouds.6 mph93%30.36 "HgN/A
2:50 am21 °FClear.5 mph93%30.36 "Hg10 mi
2:20 am23 °FClear.7 mph93%30.36 "Hg10 mi
1:50 am21 °FClear.5 mph93%30.36 "Hg10 mi
1:20 am23 °FClear.7 mph86%30.36 "Hg10 mi
12:50 am23 °FClear.7 mph93%30.33 "Hg10 mi
12:20 am23 °FClear.6 mph93%30.33 "Hg10 mi
11:50 pm
Mon, Dec 5
23 °FClear.6 mph86%30.33 "Hg10 mi
11:20 pm21 °FClear.5 mph93%30.33 "Hg10 mi
10:50 pm23 °FClear.5 mph93%30.33 "Hg10 mi
10:20 pm23 °FClear.5 mph93%30.33 "Hg10 mi
9:50 pm25 °FClear.7 mph86%30.33 "Hg10 mi
9:20 pm23 °FClear.6 mph86%30.33 "Hg10 mi
8:50 pm25 °FClear.6 mph93%30.30 "Hg10 mi
8:20 pm25 °FClear.9 mph86%30.30 "Hg10 mi
7:50 pm25 °FClear.6 mph86%30.30 "Hg10 mi
7:20 pm25 °FClear.7 mph86%30.30 "Hg10 mi
Weather by CustomWeather, © 2016

See weather overviewHow to use our weather pages